Time,TemperatureF,DewpointF,PressureIn,WindDirection,WindDirectionDegrees,WindSpeedMPH,WindSpeedGustMPH,Humidity,HourlyPrecipIn,Conditions,Clouds,dailyrainin,SoftwareType,DateUTC
2013-04-27 00:02:00,50.0,44.0,30.27,North,0,0.0,0.0,81,73.25,,,-99.99,,2013-04-27 05:02:00,
2013-04-27 00:12:00,50.0,44.0,30.27,North,0,0.0,0.0,81,73.25,,,-99.99,,2013-04-27 05:12:00,
2013-04-27 00:22:00,49.0,44.0,30.27,North,0,0.0,0.0,83,73.25,,,-99.99,,2013-04-27 05:22:00,
2013-04-27 00:32:00,48.0,44.0,30.26,North,0,0.0,0.0,87,73.25,,,-99.99,,2013-04-27 05:32:00,
2013-04-27 00:42:00,48.0,44.0,30.26,North,0,0.0,0.0,87,73.25,,,-99.99,,2013-04-27 05:42:00,
2013-04-27 00:52:00,47.0,44.0,30.26,North,0,0.0,0.0,90,73.25,,,-99.99,,2013-04-27 05:52:00,
2013-04-27 01:01:00,46.0,44.0,30.26,North,0,0.0,0.0,91,73.25,,,-99.99,,2013-04-27 06:01:00,
2013-04-27 01:12:00,46.0,44.0,30.26,North,0,0.0,0.0,91,73.25,,,-99.99,,2013-04-27 06:12:00,
2013-04-27 01:22:00,46.0,44.0,30.26,North,0,0.0,0.0,92,73.25,,,-99.99,,2013-04-27 06:22:00,
2013-04-27 01:32:00,45.0,44.0,30.26,North,0,0.0,0.0,95,73.25,,,-99.99,,2013-04-27 06:32:00,
2013-04-27 01:41:00,45.0,44.0,30.26,North,0,0.0,0.0,95,73.25,,,-99.99,,2013-04-27 06:41:00,
2013-04-27 01:52:00,45.0,44.0,30.26,North,0,0.0,0.0,95,73.25,,,-99.99,,2013-04-27 06:52:00,
2013-04-27 02:01:00,44.0,43.0,30.25,North,0,0.0,0.0,96,73.25,,,-99.99,,2013-04-27 07:01:00,
2013-04-27 02:11:00,44.0,43.0,30.25,North,0,0.0,0.0,96,73.25,,,-99.99,,2013-04-27 07:11:00,
2013-04-27 02:21:00,44.0,43.0,30.24,North,0,0.0,0.0,96,73.25,,,-99.99,,2013-04-27 07:21:00,
2013-04-27 02:31:00,44.0,43.0,30.24,North,0,0.0,0.0,96,73.25,,,-99.99,,2013-04-27 07:31:00,
2013-04-27 02:42:00,44.0,43.0,30.24,North,0,0.0,0.0,96,73.25,,,-99.99,,2013-04-27 07:42:00,
2013-04-27 02:52:00,45.0,44.0,30.24,North,0,0.0,0.0,97,73.25,,,-99.99,,2013-04-27 07:52:00,
2013-04-27 03:01:00,45.0,44.0,30.24,North,0,0.0,0.0,97,73.25,,,-99.99,,2013-04-27 08:01:00,
2013-04-27 03:11:00,45.0,44.0,30.24,North,0,0.0,0.0,97,73.25,,,-99.99,,2013-04-27 08:11:00,
2013-04-27 03:21:00,46.0,45.0,30.23,North,0,0.0,0.0,97,73.25,,,-99.99,,2013-04-27 08:21:00,
2013-04-27 03:33:00,47.0,46.0,30.23,North,0,0.0,0.0,97,73.25,,,-99.99,,2013-04-27 08:33:00,
2013-04-27 03:41:00,47.0,46.0,30.23,North,0,0.0,0.0,97,73.25,,,-99.99,,2013-04-27 08:41:00,
2013-04-27 03:52:00,47.0,46.0,30.24,North,0,0.0,0.0,96,73.25,,,-99.99,,2013-04-27 08:52:00,
2013-04-27 04:01:00,47.0,46.0,30.23,North,0,0.0,0.0,95,73.25,,,-99.99,,2013-04-27 09:01:00,
2013-04-27 04:11:00,47.0,46.0,30.23,North,0,0.0,0.0,95,73.25,,,-99.99,,2013-04-27 09:11:00,
2013-04-27 04:21:00,47.0,46.0,30.23,North,0,0.0,0.0,95,73.25,,,-99.99,,2013-04-27 09:21:00,
2013-04-27 04:33:00,47.0,45.0,30.22,North,0,0.0,0.0,94,73.25,,,-99.99,,2013-04-27 09:33:00,
2013-04-27 04:42:00,47.0,45.0,30.22,North,0,0.0,0.0,94,73.25,,,-99.99,,2013-04-27 09:42:00,
2013-04-27 04:53:00,47.0,45.0,30.22,North,0,0.0,0.0,93,73.25,,,-99.99,,2013-04-27 09:53:00,
2013-04-27 05:02:00,47.0,45.0,30.22,North,0,0.0,0.0,93,73.25,,,-99.99,,2013-04-27 10:02:00,
2013-04-27 05:12:00,47.0,45.0,30.22,North,0,0.0,0.0,93,73.25,,,-99.99,,2013-04-27 10:12:00,
2013-04-27 05:22:00,46.0,44.0,30.22,North,0,0.0,0.0,93,73.25,,,-99.99,,2013-04-27 10:22:00,
2013-04-27 05:32:00,46.0,44.0,30.21,North,0,0.0,0.0,94,73.25,,,-99.99,,2013-04-27 10:32:00,
2013-04-27 05:42:00,46.0,44.0,30.21,North,0,0.0,0.0,94,73.25,,,-99.99,,2013-04-27 10:42:00,
2013-04-27 05:52:00,45.0,43.0,30.21,North,0,0.0,0.0,94,73.25,,,-99.99,,2013-04-27 10:52:00,
2013-04-27 06:02:00,45.0,43.0,30.20,North,0,0.0,0.0,94,73.25,,,-99.99,,2013-04-27 11:02:00,
2013-04-27 06:11:00,45.0,43.0,30.21,North,0,0.0,0.0,94,73.25,,,-99.99,,2013-04-27 11:11:00,
2013-04-27 06:22:00,45.0,43.0,30.21,North,0,0.0,0.0,94,73.25,,,-99.99,,2013-04-27 11:22:00,
2013-04-27 06:31:00,44.0,43.0,30.21,North,0,0.0,0.0,95,73.25,,,-99.99,,2013-04-27 11:31:00,
2013-04-27 06:41:00,44.0,43.0,30.21,North,0,0.0,0.0,95,73.25,,,-99.99,,2013-04-27 11:41:00,
2013-04-27 06:52:00,44.0,43.0,30.22,North,0,0.0,0.0,96,73.25,,,-99.99,,2013-04-27 11:52:00,
2013-04-27 07:01:00,44.0,43.0,30.21,North,0,0.0,0.0,96,73.25,,,-99.99,,2013-04-27 12:01:00,
2013-04-27 07:11:00,44.0,43.0,30.21,North,0,0.0,0.0,96,73.25,,,-99.99,,2013-04-27 12:11:00,
2013-04-27 07:22:00,45.0,44.0,30.20,North,0,0.0,0.0,97,73.25,,,-99.99,,2013-04-27 12:22:00,
2013-04-27 07:32:00,46.0,45.0,30.20,North,0,0.0,0.0,97,73.25,,,-99.99,,2013-04-27 12:32:00,
2013-04-27 07:42:00,46.0,45.0,30.20,North,0,0.0,0.0,97,73.25,,,-99.99,,2013-04-27 12:42:00,
2013-04-27 07:52:00,47.0,46.0,30.20,North,0,0.0,0.0,97,73.25,,,-99.99,,2013-04-27 12:52:00,
2013-04-27 08:02:00,50.0,46.0,30.20,SE,138,1.0,3.0,86,73.25,,,-99.99,,2013-04-27 13:02:00,
2013-04-27 08:11:00,50.0,46.0,30.20,SE,138,1.0,3.0,86,73.25,,,-99.99,,2013-04-27 13:11:00,
2013-04-27 08:21:00,52.0,46.0,30.20,SSE,149,1.0,4.0,81,73.25,,,-99.99,,2013-04-27 13:21:00,
2013-04-27 08:32:00,54.0,46.0,30.20,SSE,158,2.0,7.0,75,73.25,,,-99.99,,2013-04-27 13:32:00,
2013-04-27 08:41:00,54.0,46.0,30.20,SSE,158,2.0,7.0,75,73.25,,,-99.99,,2013-04-27 13:41:00,
2013-04-27 08:52:00,55.0,47.0,30.19,ESE,121,1.0,5.0,73,73.25,,,-99.99,,2013-04-27 13:52:00,
2013-04-27 09:02:00,56.0,47.0,30.19,South,169,0.0,3.0,71,73.25,,,-99.99,,2013-04-27 14:02:00,
2013-04-27 09:11:00,56.0,47.0,30.19,South,169,0.0,3.0,71,73.25,,,-99.99,,2013-04-27 14:11:00,
2013-04-27 09:21:00,57.0,46.0,30.17,South,169,2.0,8.0,67,73.25,,,-99.99,,2013-04-27 14:21:00,
2013-04-27 09:31:00,58.0,45.0,30.17,SSE,162,2.0,8.0,62,73.25,,,-99.99,,2013-04-27 14:31:00,
2013-04-27 09:41:00,58.0,45.0,30.17,SSE,162,2.0,8.0,62,73.25,,,-99.99,,2013-04-27 14:41:00,
2013-04-27 09:52:00,59.0,46.0,30.16,SE,131,2.0,6.0,62,73.25,,,-99.99,,2013-04-27 14:52:00,
2013-04-27 10:01:00,60.0,45.0,30.17,SE,141,2.0,9.0,58,73.25,,,-99.99,,2013-04-27 15:01:00,
2013-04-27 10:11:00,60.0,45.0,30.17,SE,141,2.0,9.0,58,73.25,,,-99.99,,2013-04-27 15:11:00,
2013-04-27 10:22:00,61.0,46.0,30.17,SSE,159,1.0,6.0,57,73.25,,,-99.99,,2013-04-27 15:22:00,
2013-04-27 10:33:00,62.0,45.0,30.16,SE,142,1.0,5.0,53,73.25,,,-99.99,,2013-04-27 15:33:00,
2013-04-27 10:42:00,62.0,45.0,30.16,SE,142,1.0,5.0,53,73.25,,,-99.99,,2013-04-27 15:42:00,
2013-04-27 10:52:00,63.0,44.0,30.16,SSE,148,3.0,11.0,50,73.25,,,-99.99,,2013-04-27 15:52:00,
2013-04-27 11:03:00,64.0,42.0,30.16,SSW,211,3.0,9.0,45,73.25,,,-99.99,,2013-04-27 16:03:00,
2013-04-27 11:13:00,64.0,42.0,30.16,SSW,211,3.0,9.0,45,73.25,,,-99.99,,2013-04-27 16:13:00,
2013-04-27 11:22:00,64.0,43.0,30.15,South,179,2.0,8.0,46,73.25,,,-99.99,,2013-04-27 16:22:00,
2013-04-27 11:32:00,65.0,44.0,30.15,SSW,203,1.0,5.0,46,73.25,,,-99.99,,2013-04-27 16:32:00,
2013-04-27 11:42:00,65.0,44.0,30.15,SSW,203,1.0,5.0,46,73.25,,,-99.99,,2013-04-27 16:42:00,
2013-04-27 11:53:00,65.0,44.0,30.16,West,276,2.0,7.0,46,73.25,,,-99.99,,2013-04-27 16:53:00,
2013-04-27 12:02:00,64.0,43.0,30.16,North,0,1.0,5.0,47,73.25,,,-99.99,,2013-04-27 17:02:00,
2013-04-27 12:12:00,64.0,43.0,30.16,North,0,1.0,5.0,47,73.25,,,-99.99,,2013-04-27 17:12:00,
2013-04-27 12:22:00,63.0,44.0,30.14,SW,215,1.0,4.0,49,73.25,,,-99.99,,2013-04-27 17:22:00,
2013-04-27 12:32:00,64.0,44.0,30.14,SW,235,1.0,4.0,49,73.25,,,-99.99,,2013-04-27 17:32:00,
2013-04-27 12:42:00,64.0,44.0,30.14,SW,235,1.0,4.0,49,73.25,,,-99.99,,2013-04-27 17:42:00,
2013-04-27 12:53:00,65.0,44.0,30.14,NW,315,1.0,3.0,46,73.25,,,-99.99,,2013-04-27 17:53:00,
2013-04-27 13:02:00,64.0,44.0,30.13,SSE,160,1.0,4.0,49,73.25,,,-99.99,,2013-04-27 18:02:00,
2013-04-27 13:12:00,64.0,44.0,30.13,SSE,160,1.0,4.0,49,73.25,,,-99.99,,2013-04-27 18:12:00,
2013-04-27 13:22:00,64.0,44.0,30.12,SSW,201,1.0,5.0,49,73.25,,,-99.99,,2013-04-27 18:22:00,
2013-04-27 13:32:00,63.0,46.0,30.11,East,87,1.0,5.0,53,73.25,,,-99.99,,2013-04-27 18:32:00,
2013-04-27 13:41:00,63.0,46.0,30.11,East,87,1.0,5.0,53,73.25,,,-99.99,,2013-04-27 18:41:00,
2013-04-27 13:52:00,63.0,46.0,30.11,SSW,194,2.0,8.0,54,73.25,,,-99.99,,2013-04-27 18:52:00,
2013-04-27 14:02:00,64.0,47.0,30.10,NW,319,2.0,6.0,54,73.25,,,-99.99,,2013-04-27 19:02:00,
2013-04-27 14:11:00,64.0,47.0,30.10,NW,319,2.0,6.0,54,73.25,,,-99.99,,2013-04-27 19:11:00,
2013-04-27 14:21:00,64.0,49.0,30.09,SW,225,1.0,7.0,58,73.25,,,-99.99,,2013-04-27 19:21:00,
2013-04-27 14:32:00,64.0,49.0,30.09,SW,219,2.0,9.0,58,73.25,,,-99.99,,2013-04-27 19:32:00,
2013-04-27 14:42:00,64.0,49.0,30.09,SW,219,2.0,9.0,58,73.25,,,-99.99,,2013-04-27 19:42:00,
2013-04-27 14:53:00,63.0,50.0,30.09,North,359,2.0,9.0,62,73.25,,,-99.99,,2013-04-27 19:53:00,
2013-04-27 15:02:00,62.0,50.0,30.08,SW,233,1.0,6.0,64,73.25,,,-99.99,,2013-04-27 20:02:00,
2013-04-27 15:11:00,62.0,50.0,30.08,SW,233,1.0,6.0,64,73.25,,,-99.99,,2013-04-27 20:11:00,
2013-04-27 15:21:00,61.0,50.0,30.07,WNW,295,1.0,3.0,66,73.25,,,-99.99,,2013-04-27 20:21:00,
2013-04-27 15:32:00,61.0,50.0,30.06,SW,229,0.0,2.0,67,73.25,,,-99.99,,2013-04-27 20:32:00,
2013-04-27 15:42:00,61.0,50.0,30.06,SW,229,0.0,2.0,67,73.25,,,-99.99,,2013-04-27 20:42:00,
2013-04-27 15:52:00,61.0,51.0,30.06,West,262,1.0,4.0,69,73.25,,,-99.99,,2013-04-27 20:52:00,
2013-04-27 16:02:00,61.0,51.0,30.06,South,172,0.0,3.0,69,73.25,,,-99.99,,2013-04-27 21:02:00,
2013-04-27 16:11:00,61.0,51.0,30.06,South,172,0.0,3.0,69,73.25,,,-99.99,,2013-04-27 21:11:00,
2013-04-27 16:21:00,60.0,52.0,30.06,SSW,195,0.0,1.0,74,73.25,,,-99.99,,2013-04-27 21:21:00,
2013-04-27 16:32:00,59.0,53.0,30.05,South,172,0.0,2.0,80,73.25,,,-99.99,,2013-04-27 21:32:00,
2013-04-27 16:42:00,59.0,53.0,30.05,South,172,0.0,2.0,80,73.25,,,-99.99,,2013-04-27 21:42:00,
2013-04-27 16:53:00,58.0,53.0,30.05,WSW,252,0.0,1.0,83,73.25,,,-99.99,,2013-04-27 21:53:00,
2013-04-27 17:02:00,57.0,53.0,30.04,West,281,0.0,2.0,85,73.26,,,-99.99,,2013-04-27 22:02:00,
2013-04-27 17:12:00,57.0,53.0,30.04,West,281,0.0,2.0,85,73.26,,,-99.99,,2013-04-27 22:12:00,
2013-04-27 17:22:00,57.0,54.0,30.04,SSE,150,0.0,1.0,89,73.27,,,-99.99,,2013-04-27 22:22:00,
2013-04-27 17:32:00,56.0,54.0,30.03,North,0,0.0,0.0,92,73.30,,,-99.99,,2013-04-27 22:32:00,
2013-04-27 17:42:00,56.0,54.0,30.03,North,0,0.0,0.0,92,73.30,,,-99.99,,2013-04-27 22:42:00,
2013-04-27 17:52:00,56.0,54.0,30.03,North,0,0.0,0.0,94,73.31,,,-99.99,,2013-04-27 22:52:00,
2013-04-27 18:02:00,55.0,54.0,30.03,SSE,149,0.0,3.0,95,73.33,,,-99.99,,2013-04-27 23:02:00,
2013-04-27 18:11:00,55.0,54.0,30.03,SSE,149,0.0,3.0,95,73.33,,,-99.99,,2013-04-27 23:11:00,
2013-04-27 18:22:00,55.0,54.0,30.02,SSE,149,0.0,2.0,96,73.36,,,-99.99,,2013-04-27 23:22:00,
2013-04-27 18:32:00,55.0,54.0,30.02,North,0,0.0,0.0,96,73.38,,,-99.99,,2013-04-27 23:32:00,
2013-04-27 18:42:00,55.0,54.0,30.02,North,0,0.0,0.0,96,73.38,,,-99.99,,2013-04-27 23:42:00,
2013-04-27 18:52:00,54.0,53.0,30.02,ENE,75,0.0,2.0,97,73.41,,,-99.99,,2013-04-27 23:52:00,
2013-04-27 19:01:00,54.0,54.0,30.01,East,100,1.0,3.0,99,73.42,,,-99.99,,2013-04-28 00:01:00,
2013-04-27 19:11:00,54.0,54.0,30.01,East,100,1.0,3.0,99,73.42,,,-99.99,,2013-04-28 00:11:00,
2013-04-27 19:21:00,54.0,54.0,30.00,East,98,2.0,6.0,99,73.43,,,-99.99,,2013-04-28 00:21:00,
2013-04-27 19:31:00,54.0,54.0,29.99,ENE,76,3.0,5.0,100,73.44,,,-99.99,,2013-04-28 00:31:00,
2013-04-27 19:42:00,54.0,54.0,29.99,ENE,76,3.0,5.0,100,73.44,,,-99.99,,2013-04-28 00:42:00,
2013-04-27 19:52:00,54.0,54.0,29.99,ESE,114,3.0,7.0,100,73.48,,,-99.99,,2013-04-28 00:52:00,
2013-04-27 20:01:00,54.0,54.0,29.98,ESE,110,3.0,6.0,100,73.50,,,-99.99,,2013-04-28 01:01:00,
2013-04-27 20:11:00,54.0,54.0,29.98,North,0,0.0,0.0,100,73.51,,,-99.99,,2013-04-28 01:11:00,
2013-04-27 20:21:00,54.0,54.0,29.98,North,0,0.0,0.0,100,73.51,,,-99.99,,2013-04-28 01:21:00,
2013-04-27 20:31:00,54.0,54.0,29.98,SE,127,1.0,4.0,100,73.52,,,-99.99,,2013-04-28 01:31:00,
2013-04-27 20:42:00,54.0,54.0,29.98,SE,127,1.0,4.0,100,73.52,,,-99.99,,2013-04-28 01:42:00,
2013-04-27 20:52:00,54.0,54.0,29.98,ESE,110,0.0,2.0,100,73.54,,,-99.99,,2013-04-28 01:52:00,
2013-04-27 21:01:00,54.0,54.0,29.98,SSE,152,2.0,7.0,100,73.55,,,-99.99,,2013-04-28 02:01:00,
2013-04-27 21:12:00,54.0,54.0,29.98,SSE,152,2.0,7.0,100,73.55,,,-99.99,,2013-04-28 02:12:00,
2013-04-27 21:22:00,54.0,54.0,29.98,SE,142,2.0,5.0,100,73.56,,,-99.99,,2013-04-28 02:22:00,
2013-04-27 21:32:00,54.0,54.0,29.97,ESE,118,3.0,8.0,100,73.56,,,-99.99,,2013-04-28 02:32:00,
2013-04-27 21:42:00,54.0,54.0,29.97,ESE,118,3.0,8.0,100,73.56,,,-99.99,,2013-04-28 02:42:00,
2013-04-27 21:52:00,54.0,54.0,29.97,SSE,165,2.0,5.0,100,73.56,,,-99.99,,2013-04-28 02:52:00,
2013-04-27 22:01:00,54.0,54.0,29.96,East,96,2.0,5.0,100,73.56,,,-99.99,,2013-04-28 03:01:00,
2013-04-27 22:11:00,54.0,54.0,29.96,East,96,2.0,5.0,100,73.56,,,-99.99,,2013-04-28 03:11:00,
2013-04-27 22:21:00,54.0,54.0,29.95,East,80,3.0,9.0,100,73.56,,,-99.99,,2013-04-28 03:21:00,
2013-04-27 22:32:00,54.0,54.0,29.94,SE,131,3.0,6.0,100,73.56,,,-99.99,,2013-04-28 03:32:00,
2013-04-27 22:42:00,54.0,54.0,29.94,SE,131,3.0,6.0,100,73.56,,,-99.99,,2013-04-28 03:42:00,
2013-04-27 22:53:00,54.0,54.0,29.94,SE,129,2.0,4.0,100,73.56,,,-99.99,,2013-04-28 03:53:00,
2013-04-27 23:02:00,54.0,54.0,29.94,SSE,165,2.0,7.0,100,73.56,,,-99.99,,2013-04-28 04:02:00,
2013-04-27 23:13:00,54.0,54.0,29.94,SSE,165,2.0,7.0,100,73.56,,,-99.99,,2013-04-28 04:13:00,
2013-04-27 23:22:00,54.0,54.0,29.93,ESE,104,2.0,5.0,100,73.56,,,-99.99,,2013-04-28 04:22:00,
2013-04-27 23:32:00,54.0,54.0,29.93,SSE,148,2.0,6.0,100,73.57,,,-99.99,,2013-04-28 04:32:00,
2013-04-27 23:42:00,54.0,54.0,29.93,SSE,148,2.0,6.0,100,73.57,,,-99.99,,2013-04-28 04:42:00,
2013-04-27 23:53:00,54.0,54.0,29.92,ESE,122,2.0,5.0,100,73.58,,,-99.99,,2013-04-28 04:53:00,